Regional Weather Roundup
Issued by NWS

Home | Current Version | Previous Version | Graphics & Text | Print | Product List | Glossary On
Versions: 1 2 3 4 5 6 7 8 9 10 11 12 13 14 15 16 17 18 19 20 21 22 23 24 25 26 27 28 29 30 31 32 33 34 35 36 37 38 39 40 41 42 43 44 45 46 47 48 49 50
670
ASUS43 KFSD 302010
RWRSD

WEATHER ROUNDUP FOR SOUTH DAKOTA
NATIONAL WEATHER SERVICE SIOUX FALLS SD
300 PM CDT TUE AUG 30 2016

NOTE: "FAIR" INDICATES FEW OR NO CLOUDS BELOW 12,000 FEET WITH NO
SIGNIFICANT WEATHER AND/OR OBSTRUCTIONS TO VISIBILITY.


SDZ001>005-009-010-012>017-302100-
NORTHWEST AND NORTH CENTRAL SOUTH DAKOTA

CITY           SKY/WX    TMP DP  RH WIND       PRES   REMARKS
BUFFALO          N/A     84  61  45 SE10      30.14F
FAITH            N/A     87  65  47 SE14G20   30.19F
MOBRIDGE       PTSUNNY   87  53  31 SE13G21   30.17F
$$

SDZ012>016-024>037-041>051-057-063-072>074-302100-
SOUTHWEST AND SOUTH CENTRAL SOUTH DAKOTA

CITY           SKY/WX    TMP DP  RH WIND       PRES   REMARKS
RAPID CTY ARPT SUNNY     83  63  50 S12       30.22F
PIERRE         MOSUNNY   87  67  51 SE12      30.15F
CUSTER         SUNNY     77  48  35 VRB6      30.35F
ELLSWORTH AFB  SUNNY     82  66  57 SE12G20   30.20
PHILIP         SUNNY     87  63  44 SE10      30.17F
PINE RIDGE     SUNNY     86  53  32 E8        30.21F
WINNER         FAIR      89  65  44 SE9       30.18F
$$

SDZ004>011-016>023-039-040-302100-
NORTHEAST SOUTH DAKOTA

CITY           SKY/WX    TMP DP  RH WIND       PRES   REMARKS
ABERDEEN       SUNNY     84  56  38 NE14      30.21F
WATERTOWN      SUNNY     81  57  43 NE9       30.22F
BROOKINGS      SUNNY     78  62  57 E8        30.21F
SISSETON         N/A     81  53  37 CALM      30.21F
$$

SDZ017-020-022-023-036>040-048>070-302100-
SOUTHEAST SOUTH DAKOTA

CITY           SKY/WX    TMP DP  RH WIND       PRES   REMARKS
SIOUX FALLS    CLOUDY    84  71  65 E9        30.19F
HURON          PTSUNNY   85  68  56 E13       30.17F
CHAMBERLAIN    SUNNY     90  65  42 SE8       30.17F
MITCHELL       MOSUNNY   87  67  51 E6        30.17F
YANKTON        MOSUNNY   82  64  54 CALM      30.16F
$$

ABBREVIATIONS USED IN REMARKS
   TC - TEMPERATURE IN CELSIUS
  WCI - WIND CHILL INDEX
   HX - HEAT INDEX
  VSB - VISIBILITY





USA.gov is the U.S. government's official web portal to all federal, state and local government web resources and services.